Location: Zagreb
(45.8000°N, 16.0000°E)
Time: 18:40:06
(UTC+02:00)

SR - Pass Details

Date: 16 August 2020
Orbit: 583 x 873 km, 66.7° (Epoch: 28 September)

Event Time Altitude Azimuth Distance (km) Brightness Sun altitude
Rises 20:46:50 0° 202° (SSW) 2,965 ? -7.9°
Reaches altitude 10° 20:49:11 10° 199° (SSW) 2,018 ? -8.3°
Maximum altitude 20:53:38 62° 120° (ESE) 690 ? -9.0°
Drops below altitude 10° 20:57:53 10° 39° (NE) 1,928 ? -9.6°
Sets 21:00:06 0° 36° (NE) 2,820 ? -10.0°
